Location: Melbourne
(37.8170°S, 144.9670°E)
Time: 05:11:47
(UTC+11:00)

Daily predictions for brighter satellites

Satellite Brightness Start Highest point End
(mag) Time Altitude Azimuth Time Altitude Azimuth Time Altitude Azimuth
Terra 4.4 00:00:28 10° SSE 00:01:15 15° SSE 00:01:15 15° SSE
Cosmos 2369 Rocket 3.9 00:13:12 10° SSW 00:15:54 27° S 00:15:54 27° S
Cosmos 1943 Rocket 4.1 00:13:31 10° S 00:16:10 24° SSE 00:16:10 24° SSE
H-2A R/B 4.1 00:16:55 10° SSW 00:19:26 22° SW 00:19:26 22° SW
ADEOS Rocket 4.3 01:18:32 45° SW 01:18:32 45° SW 01:23:43 10° SSW
Resurs 1-4 Rocket 4.4 02:00:57 21° SSE 02:00:57 21° SSE 02:02:51 10° S
CZ-4C R/B 3.6 02:20:55 47° SSE 02:20:55 47° SSE 02:25:41 10° SSE
CZ-2D R/B 4.1 02:51:39 23° SSW 02:51:39 23° SSW 02:53:40 10° SSW
Cosmos 2082 Rocket 3.7 03:06:30 32° ESE 03:06:30 32° ESE 03:09:55 10° SE
ATLAS CENTAUR R/B 4.3 03:11:30 16° S 03:11:30 16° S 03:12:57 10° S
SL-16 R/B 4.3 03:08:23 10° SE 03:13:01 21° E 03:13:47 21° ENE
USA 267 4.0 03:19:44 10° SE 03:25:51 41° SSW 03:26:10 41° SW
ADEOS II 2.9 03:41:22 48° SSE 03:41:22 48° SSE 03:45:20 10° S
Cosmos 2181 Rocket 4.1 03:53:47 70° SSW 03:53:47 70° SSW 03:59:33 10° S
Cosmos 2218 Rocket 4.2 03:51:11 10° S 03:57:36 66° E 03:58:37 58° NE
Okean O Rocket 3.9 03:55:30 15° ENE 03:57:54 23° ESE 04:01:25 10° SSE
USA 234 3.3 03:52:12 10° NE 03:58:44 75° SE 04:05:21 10° SW
Cosmos 2341 Rocket 4.4 03:52:55 10° SSW 03:57:46 51° SW 03:57:46 51° SW
ISS -0.5 04:06:55 10° E 04:06:55 10° E 04:07:00 10° E
SL-08 R/B 3.8 04:01:25 10° SSE 04:05:46 62° SE 04:05:46 62° SE
Meteor 2-2 Rocket 4.3 04:00:51 10° S 04:06:31 77° SW 04:06:31 77° SW
CZ-4C R/B 4.4 04:06:06 20° WSW 04:07:54 22° SW 04:13:09 10° S
Cosmos 2150 Rocket 4.2 04:03:20 10° SSW 04:08:29 72° SE 04:08:29 72° SE
Cosmos 1980 Rocket 2.9 04:03:43 10° SSW 04:09:20 52° ESE 04:14:54 10° NE
Cosmos 1743 Rocket 4.4 04:12:23 51° SE 04:12:23 51° SE 04:16:07 10° SSE
Cosmos 1833 Rocket 3.3 04:13:02 44° SW 04:13:02 44° SW 04:17:45 10° S
Cosmos 1340 4.4 04:12:25 10° S 04:14:48 32° SSE 04:14:48 32° SSE
Tiangong 2 4.1 04:19:51 16° ESE 04:19:51 16° ESE 04:20:39 10° ESE
Cosmos 1151 Rocket 3.7 04:17:45 10° S 04:22:05 53° E 04:22:05 53° E
Cosmos 292 Rocket 3.9 04:27:27 65° ENE 04:27:34 66° ENE 04:32:22 10° SSE
SJ 16-02 3.1 04:24:58 10° S 04:29:00 31° ESE 04:32:59 10° NE
Cosmos 540 Rocket 3.5 04:29:01 64° NE 04:29:33 70° ENE 04:34:46 10° SSE
Cosmos 1959 Rocket 4.4 04:24:58 10° SSW 04:31:08 67° W 04:31:47 63° NW
Cosmos 1455 3.7 04:29:30 10° S 04:31:41 31° SSW 04:31:41 31° SSW
ATLAS 2A CENTAUR R/B 3.5 04:33:20 35° N 04:34:11 36° NNE 04:45:44 10° ENE
ATLAS 5 CENTAUR R/B 1.6 04:30:22 10° SSW 04:35:33 89° ESE 04:36:00 74° NE
Cosmos 2151 3.4 04:36:52 54° SSW 04:36:52 54° SSW 04:40:19 10° S
Meteor 1-11 4.5 04:36:34 50° WSW 04:36:34 50° WSW 04:41:57 10° S
SL-8 Rocket 4.2 04:31:21 10° SSW 04:37:10 48° W 04:37:10 48° W
PSLV R/B 4.1 04:38:40 47° SW 04:38:40 47° SW 04:41:58 10° SSW
SL-16 R/B 4.0 04:33:33 10° S 04:38:36 31° ESE 04:43:35 10° ENE
Cosmos 1697 Rocket 3.4 04:35:49 10° SW 04:39:44 38° WSW 04:39:44 38° WSW
Meteor 1-27 4.2 04:41:53 10° SSW 04:47:20 54° W 04:47:36 53° WNW
Cosmos 2082 Rocket 3.4 04:48:22 26° WSW 04:48:44 26° WSW 04:53:33 10° S
MOS 1-B 4.5 04:48:54 50° WNW 04:49:19 51° W 04:55:01 10° SSW
Cosmos 2058 3.9 04:51:58 35° SW 04:51:58 35° SW 04:54:57 10° S
PSLV R/B 4.5 04:54:48 44° SW 04:54:48 44° SW 04:58:01 10° SSW
DELTA 2 R/B (1) 3.7 04:53:47 36° WSW 04:56:06 74° S 05:01:47 10° E
SL-16 R/B 2.7 04:50:49 10° S 04:56:56 56° WSW 04:58:52 40° WNW
Cosmos 2228 Rocket 3.4 04:54:31 10° SSW 04:58:29 47° WSW 04:58:29 47° WSW
Cosmos 1125 Rocket 3.6 04:57:55 10° SSW 05:03:16 76° ESE 05:08:31 10° NNE
GOES 2 Rocket 4.4 05:07:10 27° N 05:07:14 27° N 05:11:39 10° ENE
CZ-4B R/B 3.8 05:09:28 35° WSW 05:09:28 35° WSW 05:13:04 10° SSW
MOZ.5/SAFIR/RUBIN 5/SL-8 4.1 05:07:02 10° S 05:11:43 50° WSW 05:12:59 39° WNW
Cosmos 2360 4.5 05:09:57 10° SW 05:15:25 45° WNW 05:20:50 10° N
Cosmos 372 Rocket 3.8 05:10:56 10° SSW 05:16:09 81° WNW 05:21:16 10° NNE
Cosmos 1934 Rocket 4.5 05:11:07 10° S 05:17:15 62° E 05:23:26 10° NNE
ADEOS II 4.1 05:22:20 12° WSW 05:22:20 12° WSW 05:22:57 10° WSW
Cosmos 972 Rocket 4.3 05:15:33 19° NNW 05:20:14 88° ENE 05:25:52 10° SSE
CZ-4B R/B 3.9 05:26:07 24° NNW 05:28:15 50° W 05:32:03 10° SSW
deb Kosmos-1763 4.3 05:27:39 37° NW 05:28:48 55° WSW 05:32:32 10° S
IRS-1C Rocket 4.1 05:24:34 10° N 05:29:46 59° W 05:35:02 10° SSW
USA 81 4.0 05:27:11 14° NNW 05:31:49 71° W 05:37:11 10° S
Gblst 52 Del rocket 4.4 05:28:38 22° NNW 05:32:23 63° NE 05:37:50 10° SE
Iridium 37 4.3 05:29:30 10° S 05:33:01 56° W 05:34:08 33° NNW
Cosmos 1821 Rocket 3.9 05:27:21 10° SSW 05:33:31 71° W 05:39:35 10° N
Okean O Rocket 2.4 05:32:58 27° NW 05:34:03 31° W 05:38:04 10° SW
CZ-2C R/B 3.6 05:29:43 10° NE 05:34:41 48° ESE 05:39:38 10° S
Shenzhou-11 Module 3.6 05:33:46 17° SW 05:35:30 30° S 05:38:16 10° ESE
Meteor PRIRODA 4.3 05:35:40 30° NW 05:36:29 34° W 05:39:55 10° SSW
GPS 2-04 Rocket1 2.7 05:35:29 32° WNW 05:36:58 57° N 05:40:47 10° ENE
In-Cosmos 22 Rocket 4.3 05:31:37 10° N 05:37:28 85° E 05:43:18 10° S
Cosmos 2322 Rocket 2.2 05:34:14 10° SSW 05:39:55 87° WNW 05:45:34 10° NNE
ISS -3.3 05:39:44 29° W 05:40:46 37° NW 05:43:52 10° NNE
USA 234 4.0 05:36:40 10° N 05:42:03 27° NW 05:47:30 10° WSW
BREEZE-M R/B 2.7 05:40:39 22° NW 05:43:36 83° SW 05:46:35 10° SE
Cosmos 1535 Rocket 4.5 05:37:58 10° SSW 05:44:22 70° W 05:50:37 10° N
CZ-4B R/B 4.0 05:43:23 10° NNW 05:48:24 32° W 05:53:30 10° SW
Cosmos 2360 Rocket 3.3 05:45:44 10° S 05:51:16 48° ESE 05:56:45 10° NE
Cosmos 1980 Rocket 3.4 05:48:49 10° SW 05:52:52 20° W 05:56:32 11° NW
GENESIS II 4.2 05:49:29 10° SW 05:53:22 57° WNW 05:57:13 10° NNE
Cosmos 1892 2.8 05:50:26 10° N 05:54:16 84° E 05:58:13 10° S
Tiangong 2 2.2 05:52:06 16° WSW 05:54:21 38° S 05:57:25 10° ESE
Cosmos 1607 4.2 05:49:38 16° NW 05:54:24 54° SW 06:00:23 10° SSE
DASH 4.2 05:59:35 14° WNW 06:02:19 19° NNW 06:04:47 10° NNE
Meteor 1-31 Rocket 4.3 06:01:28 15° NW 06:03:09 19° W 06:06:01 10° SW
SJ 16-02 2.6 06:04:02 10° SW 06:07:21 21° W 06:10:39 10° NW
Cosmos 2322 4.5 06:10:28 10° SSW 06:16:11 59° ESE 06:21:49 10° NE
Cosmos 1605 Rocket 4.1 06:12:11 10° SSW 06:18:33 64° W 06:24:45 10° N
Cosmos 1933 3.7 06:17:03 10° SSW 06:21:02 45° W 06:24:59 10° NNW
SL-16 R/B 2.8 06:17:32 10° SW 06:22:41 35° WNW 06:27:47 10° NNW
Sich 1 4.1 06:18:54 10° NW 06:22:42 27° WSW 06:26:32 10° SSW
Okean-O 3.1 06:19:34 10° N 06:23:46 40° W 06:28:02 10° SSW
Cosmos 1470 Rocket 3.5 06:21:17 10° NNW 06:25:38 68° W 06:30:00 10° S
Cosmos 405 Rocket 2.9 06:22:44 10° SSW 06:26:50 65° W 06:30:54 10° N
